RH
22 51 70 20 12 13 15 17 19 31 26 19 21 28 37 63 95 94 92 82 78 73 77 79 69 64 54 50 49 44 37 30 26 24 23 23 19 16
17 30 40 53 28 19 13 16 16 21 19 20 22 29 79 68 70 78 91 87 82 84 75 73 62 57 56 56 45 38 31 27 25 24 22 20 16 15
18 20 24 62 47 34 20 29 21 26 56 66 28 50 71 66 82 92 97 82 82 82 70 62 57 60 54 45 40 33 29 29 26 22 18 15 12 10
32 16 18 38 48 91 33 51 85 28 31 28 38 50 64 89 92 96 84 81 78 70 59 64 57 50 46 41 34 34 30 26 21 16 14 11 8 7
96 41 20 25 26 48 53 71 33 39 47 79 94 92 94 86 90 83 81 70 66 66 62 58 52 51 46 41 36 29 24 19 16 13 10 8 6 4
98 96 41 27 25 40 52 62 81 94 97 98 99 99 95 91 92 87 81 78 72 70 64 63 54 47 40 32 25 20 17 13 10 8 6 5 3 4
99 99 72 40 34 31 54 97 95 98 99 97 98 99 95 100 89 85 74 72 84 72 62 51 44 32 24 18 15 12 10 8 7 5 4 3 5 6
100 100 99 96 67 72 65 99 97 97 100 99 98 98 100 90 82 80 77 74 70 55 47 33 27 20 16 12 9 7 6 4 3 3 5 7 7 7
100 100 100 89 59 87 100 98 96 100 100 100 99 96 95 90 83 78 70 59 46 34 29 25 19 15 11 8 5 4 3 4 5 7 8 8 8 9
96 82 67 65 100 100 100 98 100 100 100 99 99 100 93 84 75 63 50 38 30 22 21 18 13 10 8 5 3 3 4 5 6 7 8 8 9 12
90 96 99 100 99 99 100 100 99 99 100 100 100 98 87 74 54 42 32 25 19 14 12 11 8 6 4 3 3 4 6 7 8 9 9 10 12 18
99 99 100 100 100 100 100 100 100 97 98 99 98 90 74 49 37 27 19 15 13 11 8 7 4 3 3 3 4 5 5 6 7 10 11 13 18 23
100 100 97 98 100 100 100 100 100 100 95 97 94 72 45 32 20 12 10 8 6 4 3 4 3 3 4 4 4 5 5 6 8 15 22 25 28 27
100 100 98 100 100 100 100 100 100 97 97 96 71 38 26 14 9 7 6 4 3 3 3 3 4 5 4 4 5 6 8 10 14 24 31 32 30 28
100 100 100 100 100 100 100 99 96 98 95 64 35 22 12 9 7 6 3 2 4 5 6 6 5 6 6 5 6 8 9 16 25 31 30 27 24 22
100 100 100 100 100 100 100 99 98 86 47 30 18 11 8 7 4 3 3 5 7 8 7 6 9 7 6 7 10 10 16 23 28 27 29 47 46 58
100 100 100 100 100 100 100 94 74 39 26 15 9 9 8 3 3 4 6 8 8 7 7 10 9 11 14 10 11 18 23 34 36 43 77 73 66 62
100 100 100 100 100 97 90 55 32 22 12 9 10 8 3 4 6 9 9 9 8 8 12 12 12 15 50 89 22 21 35 49 87 76 68 73 67 56
100 100 100 100 97 84 41 28 18 10 9 11 6 4 5 9 10 10 10 10 10 18 29 24 26 22 34 79 100 63 63 84 79 79 65 62 70 80
100 100 99 96 60 34 26 16 9 10 12 6 4 7 10 11 12 12 12 11 14 24 43 51 48 48 52 60 68 82 71 60 52 48 58 70 77 75
100 98 81 44 32 24 14 9 11 12 5 5 10 12 13 14 14 13 15 21 31 51 59 56 52 52 54 67 72 77 89 76 61 67 69 64 67 78
94 57 38 30 23 13 10 12 10 4 6 12 15 15 16 16 14 16 24 31 50 58 58 61 62 60 63 67 64 63 94 98 92 72 59 76 72 70
43 36 29 21 13 11 11 6 4 7 14 18 18 17 17 18 18 23 36 47 49 54 61 65 65 63 64 65 63 78 100 96 78 81 96 78 70 75
Wind_Speed
48 51 50 47 46 45 45 47 47 49 52 51 51 52 54 62 66 64 63 72 70 70 71 70 70 71 66 68 71 71 70 72 74 75 78 79 80 84
51 49 48 49 51 49 49 48 50 52 54 55 54 54 64 63 58 59 65 64 66 69 68 69 67 67 69 73 73 73 74 76 78 79 82 85 89 92
50 50 47 50 52 52 52 52 53 53 57 57 58 57 61 54 60 67 67 66 64 66 68 65 66 70 72 73 73 76 79 80 83 85 88 91 94 98
49 49 51 52 52 56 55 60 58 57 56 54 55 57 57 68 69 67 62 63 64 64 63 67 69 71 72 74 78 80 84 86 87 91 95 99 102 105
52 50 51 53 54 55 57 62 56 54 57 60 59 66 69 66 64 63 60 62 63 65 65 68 70 72 75 79 82 85 87 91 94 98 101 105 107 106
53 54 52 53 55 58 54 58 64 68 67 64 64 63 62 59 60 59 58 62 64 64 66 69 72 76 79 82 86 89 93 97 101 104 106 107 101 89
59 57 53 51 53 56 57 57 61 59 57 56 58 57 59 59 58 58 62 61 62 65 67 72 75 79 82 87 91 95 99 103 106 107 106 98 83 72
54 56 56 54 56 57 55 62 61 54 51 58 53 56 61 56 59 58 60 60 63 69 70 73 78 82 86 93 98 102 105 105 104 100 90 78 71 67
54 55 53 54 51 58 60 57 51 53 53 50 55 56 56 55 55 57 60 64 68 72 75 78 84 87 92 98 104 106 105 102 96 87 79 72 67 64
45 47 49 53 57 55 53 50 50 50 50 54 54 51 51 53 57 60 65 68 72 79 82 83 90 94 97 101 104 103 101 97 92 84 76 68 62 57
47 52 57 57 49 46 50 49 48 49 50 49 49 50 54 57 61 65 68 73 77 84 89 91 97 98 100 99 98 100 97 92 84 76 68 61 55 48
48 53 47 46 41 41 42 44 46 48 47 47 50 53 57 62 66 70 74 79 85 89 96 96 100 104 100 94 93 93 91 84 74 64 57 51 46 41
38 35 35 34 36 38 43 45 44 44 47 48 51 56 60 64 69 74 81 87 91 93 98 101 99 97 95 93 86 83 74 62 54 49 45 41 39 36
34 32 34 38 41 41 42 43 42 45 47 49 53 58 62 67 73 80 86 92 93 94 94 94 91 90 86 83 76 59 47 42 39 35 35 35 35 34
35 37 40 41 43 43 43 42 44 46 49 53 57 61 66 72 78 85 88 87 87 88 87 87 83 77 74 68 54 42 31 26 29 29 29 30 30 30
36 36 38 39 40 41 41 43 46 49 52 56 61 66 72 78 82 83 81 79 77 77 78 75 71 66 57 53 42 32 25 22 22 25 22 23 23 21
33 35 38 39 40 40 43 45 47 51 55 59 65 71 77 78 78 76 74 72 73 71 64 59 57 52 48 46 34 28 24 23 23 22 17 17 24 25
34 35 38 38 39 42 43 45 50 54 59 64 71 76 74 72 70 69 68 68 66 58 54 49 43 37 31 31 41 30 25 21 18 20 22 23 26 27
35 37 36 38 39 40 43 48 52 58 64 71 75 72 69 66 64 63 63 61 53 47 44 42 38 34 27 23 25 38 26 21 20 24 27 27 24 28
35 34 35 35 37 41 46 51 56 63 69 73 70 65 61 60 59 58 57 52 44 39 39 41 40 36 32 27 24 27 32 27 25 23 22 25 27 31
31 30 32 35 40 44 49 55 62 68 70 66 60 57 57 55 55 54 51 46 41 37 37 37 37 37 35 33 31 29 29 33 32 29 29 24 22 25
28 31 34 38 43 48 53 60 65 67 62 55 54 54 53 53 51 49 46 41 39 37 35 34 35 34 34 34 35 33 27 27 30 34 29 30 29 25
30 32 36 41 47 52 58 62 62 57 51 50 51 52 51 49 48 46 44 41 38 35 34 33 33 34 33 34 34 27 25 26 24 30 33 34 33 32
Wind_Direction
254 259 262 268 269 270 272 276 277 281 283 282 283 285 285 287 292 297 298 297 292 296 299 299 297 300 298 298 297 296 295 296 296 296 295 294 292 291
256 256 261 265 267 271 273 274 277 278 280 282 284 285 290 294 296 296 298 297 294 296 298 299 300 298 297 297 296 297 297 297 297 297 296 295 295 294
257 261 263 264 267 270 274 276 279 280 283 284 284 284 289 291 296 296 296 297 298 298 299 299 299 298 297 297 298 298 298 298 298 298 297 296 295 296
256 260 261 262 264 266 272 271 275 279 281 283 286 286 282 295 297 298 299 301 300 297 298 297 298 298 298 300 299 300 300 300 298 298 298 298 299 300
247 256 261 262 265 265 269 273 276 281 282 284 284 285 292 297 296 298 300 299 297 298 298 299 299 300 301 301 301 300 300 301 300 300 300 301 300 300
251 249 259 264 266 267 270 273 276 279 279 285 291 292 293 293 297 297 296 295 297 299 300 298 299 301 300 301 302 302 302 301 301 302 301 300 300 302
254 250 252 264 268 270 275 282 290 294 291 293 293 293 294 294 296 296 296 297 300 298 298 300 302 302 303 304 303 303 303 302 302 301 300 300 301 301
255 255 254 258 266 276 279 277 289 292 291 292 293 296 296 296 296 296 299 300 299 298 300 301 302 304 305 305 304 303 303 302 301 300 301 302 301 300
254 259 259 264 268 272 277 290 291 292 292 292 298 297 295 297 297 297 299 301 302 302 303 304 305 306 306 306 304 303 301 300 300 301 302 300 299 297
257 259 261 263 268 278 286 288 290 293 295 295 294 294 296 298 301 303 304 304 305 304 306 308 307 307 307 305 303 302 301 302 301 301 300 298 296 295
254 257 261 267 282 289 287 288 294 295 294 295 297 298 300 304 306 306 306 306 306 306 307 309 308 307 306 303 303 301 301 300 299 297 297 295 293 292
263 268 279 291 287 286 291 293 292 292 294 296 299 303 307 308 308 308 308 308 308 308 308 309 308 306 304 302 302 300 298 298 298 295 292 290 290 290
276 282 286 284 289 294 296 291 290 294 296 301 306 307 307 308 309 309 309 309 309 310 309 309 308 306 307 307 304 302 301 299 295 288 289 290 291 291
275 277 282 288 297 292 290 291 293 295 299 306 307 307 309 310 310 310 310 311 311 311 310 310 310 311 310 308 309 308 307 300 292 290 291 292 295 295
269 275 283 290 292 290 289 290 295 301 308 308 307 309 310 310 311 312 313 313 313 313 314 314 316 317 315 313 316 315 314 298 300 299 299 298 298 299
271 277 284 288 286 286 290 296 302 307 307 308 310 311 313 314 314 315 315 315 315 315 316 319 322 321 319 318 326 327 324 317 308 305 307 303 304 304
272 282 285 284 287 290 295 303 307 305 307 310 312 313 316 317 317 317 317 317 316 317 318 323 327 330 329 327 337 337 334 329 321 316 320 315 310 310
273 283 284 286 289 295 305 305 304 308 310 313 316 317 318 319 318 319 318 319 320 319 320 326 333 336 333 322 328 339 339 334 327 320 319 316 312 309
275 282 282 287 297 304 302 304 307 311 314 317 318 319 321 320 320 320 320 321 319 319 324 331 337 337 339 333 311 321 340 334 327 320 319 320 314 309
275 276 287 299 300 302 304 308 311 315 317 318 320 322 320 321 321 322 323 322 320 322 330 336 337 338 339 338 331 324 326 330 328 327 326 326 321 316
277 292 298 299 302 304 309 312 315 316 318 320 322 321 323 323 323 324 326 326 329 330 331 332 335 337 338 335 334 329 321 325 327 327 328 331 327 319
294 295 298 299 304 309 312 315 317 318 320 323 323 325 325 325 325 327 330 331 331 328 329 332 330 332 333 331 331 328 319 323 325 327 331 334 337 328
292 295 299 304 309 312 316 318 319 319 321 322 325 327 327 328 328 333 337 332 328 326 327 328 330 336 338 336 334 338 331 327 325 326 321 323 326 330